User: anonymous   Login
Location: Unspecified
(0.0000°N, 0.0000°E)
Time: 21:45:32
(UTC+00:00)
Language:

DSP F16 - Orbit

View from above orbital plane
View from above orbital plane
View from above satellite
View from above satellite

Ground track
Ground track

The orbit data is extracted from the following two-line orbital elements,

1 21805U 91080B   19140.30335670 -.00000086 +00000-0 +00000-0 0  9991
2 21805 015.1558 006.1243 0008608 010.5885 349.3874 00.99201038000064
Epoch (UTC): 20 May 2019 07:16:50
Eccentricity: 0.0008608
inclination: 15.1558°
perigee height: 36052 km
apogee height: 36125 km
right ascension of ascending node: 6.1243°
argument of perigee: 10.5885°
revolutions per day: 0.99201038
mean anomaly at epoch: 349.3874°
orbit number at epoch: 6

The dashed part of the orbit path shows where the satellite is in the earth's shadow,  

DLR